Probability
0 0 1 2 3 3 1 0 0 0 0 0 0 0 0 0 0 0 0 0 0 0 0 0 0 0 0 0 0 0 0 0 0 0 0 0 0 0 0 0 0 0 0 0 0 0 0 0 0
0 0 0 1 1 1 0 0 0 0 0 0 0 0 0 0 0 0 0 0 0 0 0 0 0 0 0 0 0 0 0 0 0 0 0 0 0 0 0 0 0 0 0 0 0 0 0 0 0
0 0 0 0 0 0 0 0 0 0 0 0 0 0 0 0 0 0 0 0 0 0 0 1 1 1 0 0 0 0 0 0 0 0 0 0 0 0 0 0 0 0 0 0 0 0 0 0 0
0 0 0 0 0 0 0 0 0 0 0 0 0 0 0 0 0 0 0 0 0 1 1 2 2 2 1 1 1 0 0 0 0 0 0 0 0 0 0 0 0 0 0 0 0 0 0 0 0
0 0 0 0 0 0 0 0 0 0 0 0 0 0 0 0 0 0 0 0 2 4 4 3 3 3 3 2 2 1 0 0 0 0 0 0 0 0 0 0 0 0 0 0 0 0 0 0 0
0 0 0 0 0 0 0 0 0 0 0 0 0 0 0 0 0 0 0 0 4 10 9 5 3 3 3 3 3 2 1 1 1 1 1 1 1 1 1 1 2 1 1 1 0 0 0 0 0
0 0 0 0 0 0 0 0 0 0 0 0 0 0 0 0 0 0 0 0 7 17 17 8 4 4 4 3 3 4 5 5 5 5 5 4 4 4 6 9 11 10 8 6 4 2 1 1 1
0 0 0 0 0 0 0 0 0 0 0 0 0 0 0 0 0 0 0 0 6 18 19 11 7 6 5 5 6 7 9 11 14 15 14 11 9 11 20 32 37 36 34 31 26 20 13 8 7
0 0 0 0 0 0 0 0 0 0 0 0 0 1 1 0 0 0 0 0 3 11 14 14 15 13 8 12 17 17 16 21 24 25 27 26 19 17 31 54 69 73 71 68 62 53 39 26 19
0 0 0 0 0 0 0 0 0 0 0 2 3 4 3 2 2 1 0 0 1 5 9 14 24 22 14 24 37 32 29 39 41 39 45 49 40 27 33 60 85 93 92 90 85 77 63 46 34
0 0 0 0 0 0 0 0 0 0 1 5 11 12 8 4 4 3 2 3 4 6 7 13 28 32 25 37 53 47 46 59 65 60 64 71 67 52 47 66 88 95 95 92 87 81 73 59 48
0 0 0 0 0 0 0 0 0 0 1 5 14 19 15 10 7 7 6 9 14 17 16 20 37 47 40 46 59 58 57 69 78 81 82 86 88 79 73 80 90 94 94 91 84 80 76 67 58
0 0 0 0 0 0 0 0 1 2 2 3 11 21 22 19 16 15 18 25 34 42 42 47 62 68 61 57 62 62 63 70 82 90 93 94 96 94 89 89 91 92 92 90 85 81 77 71 65
0 0 0 0 0 0 0 0 2 4 4 4 9 19 26 29 30 34 44 51 59 69 74 80 86 88 82 73 69 69 70 78 86 93 96 96 97 97 94 90 89 88 87 86 82 79 75 70 65
0 0 0 0 0 0 0 1 3 6 7 7 10 17 28 37 45 58 70 75 78 85 92 96 97 97 95 89 84 82 82 86 92 94 95 95 94 92 87 81 80 80 79 77 75 73 72 69 65
0 0 0 0 0 0 0 1 4 8 9 9 11 17 31 45 57 71 82 85 88 93 98 98 97 98 99 97 93 89 87 88 88 89 91 90 84 78 73 68 67 69 68 67 64 65 68 68 65
0 0 0 0 0 0 0 1 4 7 8 10 13 22 39 54 64 75 83 87 92 97 100 99 98 98 98 96 89 81 78 75 73 76 80 75 66 60 56 54 53 54 57 57 53 53 56 56 54
0 0 0 0 0 0 0 1 2 4 6 12 23 37 51 62 70 76 81 86 93 97 99 99 98 96 93 88 79 72 67 61 55 60 63 54 43 40 37 36 35 36 40 42 39 36 37 39 40
0 0 0 0 0 0 0 1 2 4 9 20 36 52 63 70 76 79 81 86 93 96 97 96 94 89 86 80 72 68 64 53 43 44 45 37 28 24 22 21 22 22 24 26 25 23 23 25 27
0 0 0 0 0 0 0 1 4 8 16 28 44 57 66 72 77 80 82 85 89 92 93 92 89 84 79 75 67 64 61 50 38 36 39 35 26 19 16 17 16 15 15 17 17 16 15 14 15
0 0 0 0 0 0 0 1 5 13 24 35 44 54 62 67 70 75 77 79 81 85 88 88 88 84 78 74 67 63 61 52 41 43 49 46 33 22 18 18 17 14 12 13 14 13 11 8 8
0 0 0 0 0 0 0 0 6 19 33 39 45 51 55 58 62 65 69 73 76 80 83 88 90 87 83 79 75 72 68 60 55 59 65 59 44 31 27 26 25 21 16 12 11 11 11 8 6
0 0 0 0 0 0 0 1 8 24 39 44 47 49 49 52 56 58 63 70 73 75 81 87 89 89 88 87 85 82 77 70 68 70 73 69 58 48 42 39 37 31 24 17 12 10 9 7 6
0 0 0 0 0 0 0 1 9 24 39 46 47 45 43 45 48 50 54 61 64 66 72 79 84 86 87 87 88 87 84 80 76 76 75 72 68 64 58 53 49 42 34 26 19 13 9 6 5
0 0 0 0 0 0 0 3 13 25 36 42 41 37 31 30 34 36 39 42 46 50 56 63 70 75 78 79 82 85 84 83 82 80 77 73 70 71 70 65 61 54 43 34 27 20 13 9 8
0 0 0 0 0 0 2 9 21 27 28 29 29 24 19 18 19 21 22 24 29 33 37 42 50 58 62 64 69 73 75 77 79 81 79 73 69 70 73 73 69 63 53 41 32 25 18 14 13
0 0 0 0 0 0 3 13 24 26 20 17 17 16 14 12 11 10 9 11 14 19 21 24 32 39 40 40 43 49 53 56 60 65 68 68 66 66 70 72 70 67 60 49 38 27 20 17 14
0 0 0 0 0 0 2 11 25 30 25 17 13 13 12 9 7 5 4 4 6 8 9 12 18 21 19 17 19 23 26 30 34 39 45 52 57 60 63 65 67 66 60 53 42 29 20 16 13
0 0 0 0 0 0 1 12 31 40 32 19 10 9 8 6 5 4 3 3 2 2 3 6 8 9 8 7 9 11 13 14 17 20 25 33 42 48 53 57 59 56 50 46 40 27 19 15 12
0 0 0 0 0 0 3 18 38 42 29 14 6 6 7 6 5 5 3 2 1 1 1 2 4 4 4 5 8 10 11 11 11 12 17 23 29 37 44 50 51 46 39 39 34 24 18 16 13
Wind_Speed
9 11 10 8 7 7 5 13 14 14 12 11 8 7 17 17 12 12 13 17 23 21 19 18 16 15 14 14 13 13 13 12 12 11 10 9 9 9 8 8 7 7 8 7 7 7 7 7 6
9 12 10 6 5 2 8 11 12 10 8 6 7 10 17 16 14 15 15 18 23 20 17 16 17 15 15 14 13 13 12 12 11 10 10 9 8 8 8 7 7 6 7 6 6 6 6 5 5
11 14 7 6 2 1 7 9 7 8 7 7 11 15 13 10 13 14 16 20 21 19 17 17 18 16 15 14 13 12 12 11 11 10 9 9 8 7 7 7 6 6 6 6 6 5 5 5 5
9 8 7 6 4 4 6 6 4 8 8 8 12 13 11 8 10 16 17 19 20 19 18 18 18 16 14 13 12 11 11 11 10 9 9 8 8 7 7 6 6 5 5 5 5 5 6 6 5
9 8 7 3 5 3 3 5 6 9 9 12 16 15 12 11 16 17 16 17 18 19 18 18 17 16 14 13 12 11 10 10 9 9 8 8 8 7 7 7 7 6 6 6 6 6 7 7 7
8 8 7 2 4 5 2 5 6 8 7 10 15 16 12 13 14 15 15 14 17 20 18 16 17 16 14 13 12 11 10 10 9 9 8 8 8 8 8 8 8 8 8 8 8 8 8 9 9
10 12 12 6 4 8 1 5 6 5 8 9 11 14 12 13 13 13 12 11 16 20 18 15 14 13 14 13 12 11 11 10 10 10 9 9 9 10 10 10 10 11 10 10 10 10 10 11 10
10 11 14 6 5 6 2 3 6 7 7 5 5 10 13 16 14 14 11 9 13 17 18 15 15 13 12 12 14 13 13 12 11 11 11 11 11 12 13 13 13 14 14 13 13 13 12 12 12
14 12 13 7 3 4 4 1 4 3 6 4 7 12 18 19 17 15 10 9 9 12 15 15 16 14 13 13 15 15 14 13 12 11 13 12 10 11 12 18 18 18 17 16 15 15 14 13 13
11 12 14 6 2 3 4 4 1 3 5 6 11 15 17 17 17 15 13 13 12 11 12 10 14 14 13 11 11 10 10 11 11 9 11 10 9 9 11 11 20 21 20 18 17 16 14 12 9
14 16 15 9 4 4 7 8 4 4 3 7 11 11 11 14 16 15 15 14 14 12 9 8 9 9 8 6 9 7 6 7 11 11 9 8 7 7 7 4 8 12 14 11 12 13 10 10 8
16 15 16 12 8 6 8 9 7 3 3 10 14 16 16 16 16 16 15 14 14 13 11 10 6 5 2 1 2 4 3 4 5 7 9 7 4 4 4 2 2 4 5 7 7 5 8 9 9
14 13 16 15 11 11 11 10 10 5 3 7 13 18 19 17 16 15 14 12 13 13 11 9 8 6 3 1 2 2 1 2 2 2 4 4 3 3 3 2 2 3 3 3 4 4 4 4 4
13 15 15 13 13 13 13 12 12 8 5 7 10 14 15 15 15 14 13 11 12 12 11 10 8 8 5 3 2 3 3 2 2 1 1 2 2 2 2 3 3 4 4 3 3 4 3 3 4
13 15 16 17 17 17 15 14 12 9 6 6 7 10 12 11 11 11 11 9 10 10 10 10 9 9 7 6 5 4 4 3 1 1 1 1 1 1 2 3 3 4 3 4 3 4 3 4 5
14 16 18 19 19 17 13 13 9 3 4 4 5 6 7 9 9 10 11 9 7 9 9 9 8 10 9 5 3 2 2 1 1 1 1 1 2 2 2 3 4 3 3 3 4 4 4 4 5
16 18 19 19 16 12 11 10 6 2 2 3 5 5 6 8 8 7 10 10 7 7 8 7 5 6 7 6 4 3 2 1 2 1 1 2 2 2 2 2 3 3 3 3 5 3 3 4 5
12 13 13 14 7 5 7 9 7 4 4 5 4 2 1 4 5 6 7 8 9 9 8 7 5 4 4 4 3 2 2 2 2 1 2 2 2 3 2 3 3 3 3 3 3 4 4 4 5
12 13 13 9 4 2 6 11 10 6 4 3 3 3 3 3 6 5 6 8 9 9 8 6 6 4 2 2 1 1 1 1 1 1 3 2 1 2 2 3 3 4 3 3 4 4 5 5 4
10 11 12 9 6 6 9 12 13 9 7 4 4 3 3 6 8 8 7 8 8 8 7 6 6 4 3 3 1 1 0 1 1 0 2 2 1 1 3 2 3 3 3 5 5 4 3 4 3
9 9 9 10 9 9 14 15 13 10 5 4 5 4 2 6 8 8 7 7 7 7 5 4 4 3 2 2 1 1 1 2 2 1 1 2 1 1 2 2 2 3 4 4 4 4 5 4 4
8 8 9 10 12 12 14 12 8 5 5 4 5 6 6 5 8 7 6 6 5 5 4 4 3 2 1 1 2 3 3 3 3 2 1 1 2 3 3 3 3 3 3 4 5 3 4 5 5
9 10 11 13 14 16 14 12 3 6 6 6 8 9 10 7 8 8 8 7 6 6 5 4 3 2 1 1 3 3 4 4 4 3 3 2 3 5 5 4 3 3 3 4 4 4 4 4 5
10 12 13 12 10 12 13 12 5 5 8 9 10 8 8 8 9 9 9 8 8 9 9 8 6 5 4 4 4 4 6 6 7 6 6 5 4 4 5 5 4 3 3 3 3 4 5 5 5
8 11 8 6 3 5 7 10 2 7 8 12 12 10 10 9 7 8 9 8 8 8 8 8 8 7 6 6 6 6 6 6 7 6 6 6 6 5 4 3 2 3 3 4 4 4 5 6 6
8 10 9 11 10 6 8 3 5 9 10 10 11 10 10 8 7 8 8 8 7 8 8 8 7 6 6 7 6 6 6 5 5 6 6 7 6 6 5 3 3 4 5 6 4 5 6 5 5
8 8 11 12 14 13 3 5 5 5 7 6 7 9 9 8 7 6 7 7 6 6 6 6 6 6 6 6 7 5 6 6 7 7 7 6 6 8 7 5 5 5 5 6 5 5 6 5 5
6 9 7 7 9 12 12 4 2 5 5 4 4 7 7 6 6 6 6 6 6 6 5 5 5 5 5 6 6 7 6 6 6 7 8 8 8 8 9 8 7 6 6 6 6 6 6 6 5
9 9 8 7 9 11 13 6 7 6 4 4 6 7 7 8 8 7 7 7 7 8 7 6 6 6 5 5 5 6 5 6 6 5 6 7 8 8 8 8 8 8 8 7 6 7 7 6 6
8 8 7 7 8 9 11 4 8 8 6 6 7 7 8 9 9 8 8 8 8 9 9 8 8 7 6 6 6 6 6 6 6 7 7 7 7 8 8 8 8 9 9 7 7 8 7 6 6
Wind_Direction
224 227 222 239 246 248 56 59 54 49 53 58 48 39 57 50 55 89 117 125 117 124 133 136 136 138 139 141 142 143 143 143 142 141 140 140 137 133 131 129 127 123 120 119 118 114 112 109 107
256 242 230 243 264 316 66 66 64 61 61 71 69 63 73 68 86 108 117 120 120 127 139 139 140 142 143 143 145 147 148 148 148 148 149 149 148 146 144 141 139 136 134 133 133 131 129 125 124
257 254 259 244 246 63 68 71 78 94 91 84 78 63 61 75 96 111 122 125 123 134 139 137 146 146 147 148 150 153 154 155 156 157 158 160 161 160 158 156 156 156 154 154 155 154 152 151 153
255 239 230 268 318 59 73 87 97 94 82 81 87 82 76 55 94 115 133 131 132 137 135 142 150 150 152 153 156 159 161 162 164 165 168 171 174 177 176 175 178 180 181 181 181 181 180 180 184
247 255 253 301 324 360 74 75 78 78 78 81 89 92 94 93 103 126 141 136 140 135 135 147 153 154 157 160 163 166 168 171 174 177 181 186 190 194 197 198 200 202 206 209 209 207 205 203 203
268 264 277 278 291 291 116 96 81 85 90 98 103 105 104 116 125 143 140 148 140 131 136 144 155 158 162 166 170 175 179 182 186 190 195 201 207 211 216 219 219 220 222 226 228 227 224 220 217
268 288 289 269 233 267 227 107 98 91 80 73 101 111 123 133 141 139 139 159 136 131 134 148 157 162 168 174 178 183 189 193 197 203 208 213 219 224 227 229 229 229 229 232 234 236 235 232 227
279 289 290 284 260 257 274 109 99 97 92 93 92 121 141 142 146 136 157 156 130 134 140 154 159 165 173 180 187 191 196 201 206 212 218 223 229 233 234 234 229 229 229 229 232 236 239 238 234
267 270 278 296 306 302 309 33 91 101 127 109 70 106 135 144 145 146 161 147 133 138 144 163 160 169 180 183 183 191 199 205 210 217 223 227 233 233 227 228 226 224 225 227 229 232 236 239 239
249 265 276 307 333 274 302 294 217 196 156 113 92 103 128 147 150 157 167 162 160 161 156 167 162 169 187 188 164 186 195 198 207 214 210 212 226 241 246 225 216 219 221 225 228 232 234 236 240
256 265 282 292 279 270 275 268 251 246 123 100 110 120 145 164 161 167 175 173 169 169 167 172 164 165 186 166 162 189 196 186 197 214 213 210 222 234 243 234 204 211 218 224 228 227 229 230 231
260 271 287 290 294 289 282 291 288 275 120 130 146 161 175 184 174 177 177 177 167 170 173 174 162 146 181 123 184 181 196 181 193 195 206 212 213 244 270 280 235 201 209 212 228 221 220 225 232
267 270 277 284 287 281 277 276 278 277 200 155 156 168 180 189 180 180 171 174 168 166 171 166 152 144 146 85 322 277 253 234 213 177 201 214 217 234 264 291 290 274 260 232 222 240 246 247 251
285 288 284 283 281 277 272 267 264 252 225 190 177 179 187 188 182 176 167 173 165 161 163 154 150 147 150 168 217 284 284 262 260 235 211 206 227 243 272 273 273 276 282 288 290 282 277 271 264
274 279 277 269 261 255 258 258 255 251 221 216 211 200 192 185 179 173 165 162 164 159 157 150 159 157 160 186 207 226 239 249 255 281 253 225 250 270 271 277 275 268 274 280 277 275 268 260 258
269 262 261 257 250 243 245 261 269 256 218 246 245 226 194 171 183 168 157 154 163 155 143 148 165 158 160 173 192 253 267 309 319 294 330 29 359 313 284 279 276 279 279 268 258 248 252 254 256
248 246 250 255 246 236 241 259 255 196 199 214 243 238 219 171 176 153 152 154 144 119 119 121 123 134 148 163 176 221 232 255 272 270 92 61 341 323 315 289 279 281 276 268 272 266 248 252 252
281 274 257 256 237 206 257 272 264 228 212 223 229 223 240 168 147 139 143 135 126 113 116 121 117 113 139 147 161 212 209 229 222 181 101 64 355 1 358 297 310 309 283 275 276 285 276 260 255
310 310 310 311 355 316 285 287 282 269 248 220 151 149 163 156 117 112 108 116 115 115 119 123 125 126 135 125 163 198 163 277 308 113 102 85 4 6 317 304 338 305 297 311 295 284 282 275 260
284 282 287 288 284 279 273 267 266 252 222 184 145 137 137 120 104 97 94 93 101 109 115 125 137 147 161 131 142 174 298 267 242 124 135 143 81 353 303 12 319 319 320 288 280 296 294 290 282
289 298 309 317 315 285 272 260 250 239 195 121 91 67 63 120 119 111 104 100 107 107 113 120 115 135 159 126 233 246 215 262 272 244 172 144 146 260 285 299 297 314 301 307 330 298 288 292 296
312 329 318 303 293 284 282 280 255 193 130 92 73 75 62 52 83 85 96 94 92 107 113 103 110 114 93 58 311 310 290 288 285 265 238 176 221 238 241 244 255 274 289 299 295 332 328 303 292
315 316 302 292 287 281 279 276 258 145 133 103 71 68 73 59 62 71 60 51 52 52 52 52 76 81 36 349 317 303 293 294 298 310 311 283 258 234 228 222 219 240 259 275 293 303 295 292 287
303 298 288 288 296 292 312 303 246 152 140 125 104 92 85 76 64 56 57 46 33 34 37 31 32 29 13 350 335 323 313 312 310 309 304 296 276 250 232 220 204 221 246 267 276 279 278 274 280
313 299 299 313 316 272 279 283 297 106 106 113 118 112 96 83 71 61 49 48 38 35 36 33 33 22 11 0 356 340 326 313 300 297 296 291 287 279 260 252 219 228 240 253 256 260 264 269 270
301 296 299 307 302 282 229 240 58 59 71 84 99 101 98 92 75 62 52 44 36 34 30 25 25 16 8 2 355 338 333 328 322 318 311 302 296 297 297 282 257 244 242 251 250 260 259 258 260
305 308 313 306 303 307 315 106 98 63 64 63 75 82 80 75 70 61 54 41 24 29 30 22 17 9 0 353 343 330 346 342 332 324 314 306 307 303 303 294 278 264 251 250 254 257 258 262 263
286 303 306 310 315 313 320 35 132 163 158 132 86 72 60 54 49 41 34 28 17 8 19 11 0 351 341 335 330 331 337 326 323 321 319 316 312 309 308 299 288 276 263 254 250 258 255 255 257
307 310 320 312 311 316 316 8 62 97 91 81 69 57 40 23 20 15 9 4 355 348 350 349 342 332 325 319 313 313 311 312 314 312 315 317 313 309 303 297 290 279 268 257 250 254 258 258 262
319 308 304 307 314 309 306 34 46 55 53 44 38 34 23 3 350 346 345 341 334 334 331 328 323 315 310 306 302 299 301 303 303 303 303 300 300 302 301 297 291 283 276 265 260 261 262 260 261